{"data":{"norad_id":67337,"intl_designator":"2026-003D","name":"STARLINK-36410","alt_names":[],"object_type":"PAYLOAD","status":"ACTIVE","operator":null,"country":"US","launch_date":"2026-01-09","launch_site_code":"AFETR","launch_vehicle":null,"mission":null,"orbit_class":"UNKNOWN","rcs_meters":null,"size_class":null,"mass_kg":null,"dimensions":null,"purposes":["comms"],"wikipedia_slug":null,"has_3d_model":false,"image_url":null,"decayed_at":null,"tle_current":{"epoch":"2026-09-19T14:06:48.023712Z","epoch_age_seconds":154079,"freshness":"FRESH","line1":"1 67337U 26003D   26262.58805583  .00010139  00000+0  37734-3 0  9997","line2":"2 67337  43.0017 212.4263 0000891 295.3626  64.7134 15.27591333 38470","mean_motion":15.27591333,"eccentricity":8.91e-5,"inclination_deg":43.0017,"raan_deg":212.4263,"arg_perigee_deg":295.3626,"mean_anomaly_deg":64.7134,"bstar":0.00037734,"rev_number":3847,"period_min":94.266049360991,"perigee_km":482.40383251287,"apogee_km":483.62648982799,"semimajor_km":6861.1521611704,"source":"CELESTRAK","updated_at":"2026-09-20T09:00:43.511032Z"}}}